Aktuell
News
Messwerte
Diagramme
Archiv
Wettervorhersage
Regen
Wettergefahren

Astro & Geo
Health
Pegel
Gästebuch
Kontakt
Impressum
Datenschutz
App

Leicht bewölkt bei 16.5 °C – Luftdruck: 1012.5 hPa – Wind: SSW 3.2 km/h
Messwerte von 10:29 Uhr; Warnsymbol: Datenbasis DWD; Wetterzustand powered by
Übersicht
Heute
Gestern
Vor 1 Jahr
Info
Vor 1 Jahr
 
Messwerte von Dienstag, 22.10.2019
Symbol
Zeitpunkt
Wetter-
zustand
Zeitpunkt
Temperatur
Zeitpunkt
Luftfeuchte
Taupunkt
Zeitpunkt
Luftdruck
Zeitpunkt
Wind
Zeitpunkt
Windböen
Max 15 Min.
Wind-
richtung
Zeitpunkt
Regen
Summe 1 h
Regenrate
Max 15 Min.
UV-Index
Max 15 Min.
Pegel Köln
Zeitpunkt
Warnlage
Zeitpunkt
00:15 Stark bewölkt3 12.7 °C 74 %
8.2 °C
1021.6 hPa 4.7 km/h
1 Bft
17.6 km/h
3 Bft
SO -
0.0 mm/h
0.0 300 cm
00:30 Wolkig3 12.7 °C 74 %
8.2 °C
1021.7 hPa 4.7 km/h
1 Bft
14.4 km/h
3 Bft
S -
0.0 mm/h
0.0 300 cm
00:45 Bedeckt2 12.6 °C 75 %
8.3 °C
1021.7 hPa 1.4 km/h
1 Bft
6.5 km/h
2 Bft
SSO -
0.0 mm/h
0.0 301 cm
01:00 Bedeckt2 12.1 °C 78 %
8.4 °C
1021.6 hPa 4.7 km/h
1 Bft
13.0 km/h
3 Bft
SSO 0.00 mm
0.0 mm/h
0.0 303 cm
01:15 Wolkig3 11.8 °C 78 %
8.1 °C
1021.6 hPa 1.6 km/h
1 Bft
11.2 km/h
2 Bft
SSO -
0.0 mm/h
0.0 304 cm
01:30 Wolkig3 11.7 °C 78 %
8.0 °C
1022.0 hPa 3.2 km/h
1 Bft
7.9 km/h
2 Bft
SSO -
0.0 mm/h
0.0 304 cm
01:45 Leicht bewölkt3 11.6 °C 79 %
8.1 °C
1022.1 hPa 3.2 km/h
1 Bft
16.2 km/h
3 Bft
SSW -
0.0 mm/h
0.0 306 cm
02:00 Wolkig3 11.3 °C 79 %
7.8 °C
1022.2 hPa 4.7 km/h
1 Bft
17.6 km/h
3 Bft
SSW 0.00 mm
0.0 mm/h
0.0 307 cm
02:15 Leicht bewölkt3 11.2 °C 80 %
7.9 °C
1022.2 hPa 3.2 km/h
1 Bft
17.6 km/h
3 Bft
S -
0.0 mm/h
0.0 308 cm
02:30 Wolkig3 11.1 °C 80 %
7.8 °C
1022.1 hPa 3.2 km/h
1 Bft
14.4 km/h
3 Bft
S -
0.0 mm/h
0.0 310 cm
02:45 Leicht bewölkt3 10.9 °C 81 %
7.8 °C
1022.2 hPa 3.2 km/h
1 Bft
11.2 km/h
2 Bft
S -
0.0 mm/h
0.0 311 cm
03:00 Leicht bewölkt3 10.8 °C 81 %
7.7 °C
1022.1 hPa 3.2 km/h
1 Bft
9.7 km/h
2 Bft
S 0.00 mm
0.0 mm/h
0.0 311 cm
03:15 Wolkenlos2 10.7 °C 82 %
7.8 °C
1022.3 hPa 1.4 km/h
1 Bft
9.7 km/h
2 Bft
SSO -
0.0 mm/h
0.0 312 cm
03:30 Wolkenlos2 10.8 °C 82 %
7.9 °C
1022.3 hPa 1.4 km/h
1 Bft
4.7 km/h
1 Bft
SSW -
0.0 mm/h
0.0 314 cm
03:45 Leicht bewölkt3 11.1 °C 80 %
7.8 °C
1022.2 hPa 3.2 km/h
1 Bft
9.7 km/h
2 Bft
S -
0.0 mm/h
0.0 314 cm
04:00 Wolkenlos2 11.1 °C 80 %
7.8 °C
1022.2 hPa 3.2 km/h
1 Bft
7.9 km/h
2 Bft
S 0.00 mm
0.0 mm/h
0.0 315 cm
04:15 Wolkenlos2 10.8 °C 81 %
7.7 °C
1022.0 hPa 1.4 km/h
1 Bft
6.5 km/h
2 Bft
SO -
0.0 mm/h
0.0 316 cm
04:30 Wolkenlos2 10.6 °C 83 %
7.8 °C
1022.2 hPa 3.2 km/h
1 Bft
9.7 km/h
2 Bft
SO -
0.0 mm/h
0.0 317 cm
04:45 Leicht bewölkt3 10.7 °C 83 %
7.9 °C
1022.3 hPa 3.2 km/h
1 Bft
9.7 km/h
2 Bft
SO -
0.0 mm/h
0.0 318 cm
05:00 Leicht bewölkt3 10.8 °C 83 %
8.0 °C
1022.2 hPa 3.2 km/h
1 Bft
11.2 km/h
2 Bft
SSO 0.00 mm
0.0 mm/h
0.0 318 cm
05:15 Wolkenlos2 10.8 °C 84 %
8.2 °C
1022.3 hPa 1.4 km/h
1 Bft
6.5 km/h
2 Bft
SO -
0.0 mm/h
0.0 319 cm
05:30 Wolkenlos2 10.9 °C 83 %
8.1 °C
1022.5 hPa 3.2 km/h
1 Bft
9.7 km/h
2 Bft
OSO -
0.0 mm/h
0.0 319 cm
05:45 Wolkenlos2 10.9 °C 83 %
8.1 °C
1022.4 hPa 1.4 km/h
1 Bft
7.9 km/h
2 Bft
SO -
0.0 mm/h
0.0 320 cm
06:00 Leicht bewölkt3 11.1 °C 83 %
8.3 °C
1022.4 hPa 1.4 km/h
1 Bft
6.5 km/h
2 Bft
OSO 0.00 mm
0.0 mm/h
0.0 322 cm
06:15 Wolkig3 10.9 °C 85 %
8.5 °C
1022.2 hPa 3.2 km/h
1 Bft
6.5 km/h
2 Bft
OSO -
0.0 mm/h
0.0 322 cm
06:30 Wolkig3 10.8 °C 85 %
8.4 °C
1022.0 hPa 3.2 km/h
1 Bft
6.5 km/h
2 Bft
OSO -
0.0 mm/h
0.0 323 cm
06:45 Wolkig3 10.7 °C 85 %
8.3 °C
1021.7 hPa 3.2 km/h
1 Bft
9.7 km/h
2 Bft
OSO -
0.0 mm/h
0.0 323 cm
07:00 Wolkig3 10.7 °C 84 %
8.1 °C
1022.2 hPa 4.7 km/h
1 Bft
11.2 km/h
2 Bft
SSO 0.00 mm
0.0 mm/h
0.0 324 cm
07:15 Stark bewölkt3 10.7 °C 84 %
8.1 °C
1022.5 hPa 4.7 km/h
1 Bft
13.0 km/h
3 Bft
SSO -
0.0 mm/h
0.0 325 cm
07:30 Stark bewölkt3 10.8 °C 85 %
8.4 °C
1022.8 hPa 3.2 km/h
1 Bft
7.9 km/h
2 Bft
SW -
0.0 mm/h
0.0 326 cm
07:45 Stark bewölkt3 10.8 °C 84 %
8.2 °C
1022.7 hPa 3.2 km/h
1 Bft
14.4 km/h
3 Bft
SO -
0.0 mm/h
0.0 327 cm
08:00 Stark bewölkt3 10.8 °C 83 %
8.0 °C
1023.0 hPa 3.2 km/h
1 Bft
13.0 km/h
3 Bft
SSW 0.00 mm
0.0 mm/h
0.0 327 cm
08:15 Stark bewölkt3 11.1 °C 81 %
8.0 °C
1023.2 hPa 4.7 km/h
1 Bft
11.2 km/h
2 Bft
SSO -
0.0 mm/h
0.0 327 cm
08:30 Stark bewölkt3 11.1 °C 80 %
7.8 °C
1023.4 hPa 4.7 km/h
1 Bft
11.2 km/h
2 Bft
SSO -
0.0 mm/h
0.0 327 cm
08:45 Stark bewölkt3 11.1 °C 81 %
8.0 °C
1023.5 hPa 1.4 km/h
1 Bft
7.9 km/h
2 Bft
SSW -
0.0 mm/h
0.0 328 cm
09:00 Stark bewölkt3 11.2 °C 81 %
8.1 °C
1023.5 hPa 3.2 km/h
1 Bft
7.9 km/h
2 Bft
SO 0.00 mm
0.0 mm/h
0.0 329 cm
09:15 Stark bewölkt3 11.2 °C 81 %
8.1 °C
1023.9 hPa 1.4 km/h
1 Bft
9.7 km/h
2 Bft
SSW -
0.0 mm/h
0.0 330 cm
09:30 Stark bewölkt3 11.3 °C 81 %
8.2 °C
1024.0 hPa 1.4 km/h
1 Bft
11.2 km/h
2 Bft
SO -
0.0 mm/h
0.0 330 cm
09:45 Stark bewölkt3 11.3 °C 80 %
8.0 °C
1024.2 hPa 3.2 km/h
1 Bft
11.2 km/h
2 Bft
SSO -
0.0 mm/h
0.0 331 cm
10:00 Stark bewölkt3 11.4 °C 79 %
7.9 °C
1024.1 hPa 4.7 km/h
1 Bft
13.0 km/h
3 Bft
SSO 0.00 mm
0.0 mm/h
0.0 331 cm
10:15 Stark bewölkt3 11.7 °C 79 %
8.2 °C
1024.1 hPa 3.2 km/h
1 Bft
11.2 km/h
2 Bft
SO -
0.0 mm/h
0.0 332 cm
10:30 Bedeckt2 11.6 °C 79 %
8.1 °C
1024.2 hPa 1.4 km/h
1 Bft
6.5 km/h
2 Bft
OSO -
0.0 mm/h
0.0 332 cm
10:45 Stark bewölkt3 11.6 °C 79 %
8.1 °C
1024.6 hPa 1.4 km/h
1 Bft
9.7 km/h
2 Bft
SO -
0.0 mm/h
0.0 332 cm
11:00 Stark bewölkt3 11.7 °C 79 %
8.2 °C
1024.6 hPa 1.4 km/h
1 Bft
9.7 km/h
2 Bft
SSW 0.00 mm
0.0 mm/h
0.0 333 cm
11:15 Stark bewölkt3 11.9 °C 79 %
8.4 °C
1024.7 hPa 1.4 km/h
1 Bft
6.5 km/h
2 Bft
SO -
0.0 mm/h
0.0 334 cm
11:30 Stark bewölkt3 11.9 °C 80 %
8.6 °C
1024.9 hPa 3.2 km/h
1 Bft
9.7 km/h
2 Bft
SO -
0.0 mm/h
0.0 334 cm
11:45 Stark bewölkt3 11.9 °C 80 %
8.6 °C
1025.1 hPa 4.7 km/h
1 Bft
13.0 km/h
3 Bft
SSO -
0.0 mm/h
0.0 334 cm
12:00 Stark bewölkt3 11.9 °C 80 %
8.6 °C
1025.0 hPa 4.7 km/h
1 Bft
11.2 km/h
2 Bft
SO 0.00 mm
0.0 mm/h
0.0 334 cm
12:15 Stark bewölkt3 12.3 °C 81 %
9.1 °C
1025.1 hPa 3.2 km/h
1 Bft
11.2 km/h
2 Bft
SO -
0.0 mm/h
0.9 335 cm
12:30 Stark bewölkt3 12.6 °C 80 %
9.2 °C
1025.2 hPa 3.2 km/h
1 Bft
7.9 km/h
2 Bft
OSO -
0.0 mm/h
1.1 335 cm
12:45 Bedeckt2 12.9 °C 80 %
9.5 °C
1025.0 hPa 1.4 km/h
1 Bft
7.9 km/h
2 Bft
SO -
0.0 mm/h
1.4 336 cm
13:00 Bedeckt2 13.1 °C 77 %
9.2 °C
1024.8 hPa 1.4 km/h
1 Bft
6.5 km/h
2 Bft
S 0.00 mm
0.0 mm/h
1.5 337 cm
13:15 Bedeckt2 12.8 °C 78 %
9.1 °C
1024.7 hPa 1.4 km/h
1 Bft
4.7 km/h
1 Bft
WNW -
0.0 mm/h
1.3 337 cm
13:30 Bedeckt2 12.7 °C 78 %
9.0 °C
1024.4 hPa 3.2 km/h
1 Bft
6.5 km/h
2 Bft
NW -
0.0 mm/h
1.1 338 cm
13:45 Bedeckt2 13.2 °C 78 %
9.4 °C
1024.4 hPa 1.4 km/h
1 Bft
6.5 km/h
2 Bft
SSW -
0.0 mm/h
1.7 338 cm
14:00 Bedeckt2 13.3 °C 78 %
9.5 °C
1024.1 hPa 3.2 km/h
1 Bft
9.7 km/h
2 Bft
N 0.00 mm
0.0 mm/h
1.4 338 cm
14:15 Stark bewölkt3 13.8 °C 76 %
9.6 °C
1024.2 hPa 6.5 km/h
2 Bft
13.0 km/h
3 Bft
NNW -
0.0 mm/h
2.4 338 cm
14:30 Wolkig3 13.7 °C 76 %
9.5 °C
1024.1 hPa 1.4 km/h
1 Bft
7.9 km/h
2 Bft
WNW -
0.0 mm/h
1.3 338 cm
14:45 Stark bewölkt3 13.4 °C 78 %
9.6 °C
1024.2 hPa 4.7 km/h
1 Bft
7.9 km/h
2 Bft
NNW -
0.0 mm/h
1.4 339 cm
15:00 Wolkig3 14.1 °C 77 %
10.1 °C
1023.9 hPa 3.2 km/h
1 Bft
7.9 km/h
2 Bft
WSW 0.00 mm
0.0 mm/h
1.1 340 cm
15:15 Wolkig3 14.2 °C 76 %
10.0 °C
1023.9 hPa 1.4 km/h
1 Bft
6.5 km/h
2 Bft
WNW -
0.0 mm/h
1.0 340 cm
15:30 Wolkig3 13.8 °C 77 %
9.8 °C
1023.7 hPa 3.2 km/h
1 Bft
7.9 km/h
2 Bft
N -
0.0 mm/h
0.9 340 cm
15:45 Wolkig3 14.5 °C 75 %
10.1 °C
1023.8 hPa 1.4 km/h
1 Bft
6.5 km/h
2 Bft
NNO -
0.0 mm/h
0.9 340 cm
16:00 Wolkig3 14.3 °C 76 %
10.1 °C
1023.7 hPa 3.2 km/h
1 Bft
6.5 km/h
2 Bft
N 0.00 mm
0.0 mm/h
0.5 340 cm
16:15 Leicht bewölkt3 13.9 °C 77 %
9.9 °C
1023.6 hPa 4.7 km/h
1 Bft
11.2 km/h
2 Bft
NW -
0.0 mm/h
0.0 340 cm
16:30 Wolkig3 14.1 °C 76 %
9.9 °C
1023.6 hPa 3.2 km/h
1 Bft
6.5 km/h
2 Bft
N -
0.0 mm/h
0.0 341 cm
16:45 Leicht bewölkt3 14.0 °C 78 %
10.2 °C
1023.6 hPa 3.2 km/h
1 Bft
4.7 km/h
1 Bft
NW -
0.0 mm/h
0.0 341 cm
17:00 Leicht bewölkt3 14.0 °C 78 %
10.2 °C
1023.6 hPa 1.4 km/h
1 Bft
7.9 km/h
2 Bft
NNO 0.00 mm
0.0 mm/h
0.0 341 cm
17:15 Wolkig3 13.9 °C 77 %
9.9 °C
1023.6 hPa 1.8 km/h
1 Bft
4.7 km/h
1 Bft
NNO -
0.0 mm/h
0.0 341 cm
17:30 Stark bewölkt3 13.9 °C 77 %
9.9 °C
1023.3 hPa 3.2 km/h
1 Bft
6.5 km/h
2 Bft
NO -
0.0 mm/h
0.0 341 cm
17:45 Wolkig3 14.1 °C 77 %
10.1 °C
1023.5 hPa 1.4 km/h
1 Bft
6.5 km/h
2 Bft
NNO -
0.0 mm/h
0.0 341 cm
18:00 Leicht bewölkt3 13.7 °C 78 %
9.9 °C
1023.4 hPa 1.4 km/h
1 Bft
4.7 km/h
1 Bft
NNO 0.00 mm
0.0 mm/h
0.0 341 cm
18:15 Leicht bewölkt3 13.4 °C 79 %
9.8 °C
1023.4 hPa 1.4 km/h
1 Bft
4.7 km/h
1 Bft
NNO -
0.0 mm/h
0.0 341 cm
18:30 Leicht bewölkt3 13.1 °C 81 %
9.9 °C
1023.5 hPa 1.4 km/h
1 Bft
3.2 km/h
1 Bft
NNO -
0.0 mm/h
0.0 342 cm
18:45 Leicht bewölkt3 12.6 °C 83 %
9.8 °C
1023.6 hPa 0.0 km/h
0 Bft
1.4 km/h
1 Bft
NNO -
0.0 mm/h
0.0 342 cm
19:00 Leicht bewölkt3 12.4 °C 84 %
9.8 °C
1023.7 hPa 0.0 km/h
0 Bft
3.2 km/h
1 Bft
ONO 0.00 mm
0.0 mm/h
0.0 342 cm
19:15 Leicht bewölkt3 12.2 °C 85 %
9.8 °C
1023.9 hPa 1.4 km/h
1 Bft
4.7 km/h
1 Bft
O -
0.0 mm/h
0.0 341 cm
19:30 Leicht bewölkt3 11.9 °C 85 %
9.5 °C
1023.7 hPa 1.4 km/h
1 Bft
4.7 km/h
1 Bft
O -
0.0 mm/h
0.0 342 cm
19:45 Wolkig3 12.0 °C 85 %
9.6 °C
1023.8 hPa 1.4 km/h
1 Bft
4.7 km/h
1 Bft
ONO -
0.0 mm/h
0.0 342 cm
20:00 Wolkig3 11.8 °C 85 %
9.4 °C
1023.6 hPa 1.4 km/h
1 Bft
3.2 km/h
1 Bft
ONO 0.00 mm
0.0 mm/h
0.0 341 cm
20:15 Wolkig3 11.7 °C 85 %
9.3 °C
1023.7 hPa 1.1 km/h
1 Bft
3.2 km/h
1 Bft
O -
0.0 mm/h
0.0 341 cm
20:30 Wolkig3 11.4 °C 86 %
9.1 °C
1023.4 hPa 1.4 km/h
1 Bft
3.2 km/h
1 Bft
O -
0.0 mm/h
0.0 341 cm
20:45 Wolkig3 11.1 °C 88 %
9.2 °C
1023.4 hPa 1.4 km/h
1 Bft
4.7 km/h
1 Bft
O -
0.0 mm/h
0.0 341 cm
21:00 Wolkig3 11.1 °C 88 %
9.2 °C
1023.4 hPa 1.4 km/h
1 Bft
3.2 km/h
1 Bft
OSO 0.00 mm
0.0 mm/h
0.0 341 cm
21:15 Wolkig3 11.1 °C 88 %
9.2 °C
1023.3 hPa 1.4 km/h
1 Bft
4.7 km/h
1 Bft
OSO -
0.0 mm/h
0.0 341 cm
21:30 Wolkig3 11.2 °C 87 %
9.1 °C
1023.1 hPa 0.0 km/h
0 Bft
3.2 km/h
1 Bft
O -
0.0 mm/h
0.0 341 cm
21:45 Wolkig3 11.3 °C 87 %
9.2 °C
1023.0 hPa 1.4 km/h
1 Bft
3.2 km/h
1 Bft
O -
0.0 mm/h
0.0 341 cm
22:00 Wolkig3 11.2 °C 86 %
8.9 °C
1022.9 hPa 1.4 km/h
1 Bft
4.7 km/h
1 Bft
O 0.00 mm
0.0 mm/h
0.0 341 cm
22:15 Wolkig3 11.3 °C 87 %
9.2 °C
1022.7 hPa 1.4 km/h
1 Bft
3.2 km/h
1 Bft
NNO -
0.0 mm/h
0.0 341 cm
22:30 Wolkig3 11.2 °C 87 %
9.1 °C
1022.8 hPa 0.0 km/h
0 Bft
3.2 km/h
1 Bft
NNO -
0.0 mm/h
0.0 341 cm
22:45 Wolkig3 11.2 °C 88 %
9.3 °C
1022.8 hPa 0.0 km/h
0 Bft
3.2 km/h
1 Bft
NNO -
0.0 mm/h
0.0 340 cm
23:00 Wolkig3 11.2 °C 88 %
9.3 °C
1022.9 hPa 1.4 km/h
1 Bft
3.2 km/h
1 Bft
OSO 0.00 mm
0.0 mm/h
0.0 341 cm
23:15 Wolkig3 11.3 °C 87 %
9.2 °C
1022.9 hPa 1.4 km/h
1 Bft
3.2 km/h
1 Bft
SO -
0.0 mm/h
0.0 340 cm
23:30 Wolkig3 11.3 °C 87 %
9.2 °C
1022.6 hPa 1.4 km/h
1 Bft
1.4 km/h
1 Bft
SO -
0.0 mm/h
0.0 340 cm
23:45 Wolkig3 11.2 °C 87 %
9.1 °C
1022.6 hPa 1.4 km/h
1 Bft
3.2 km/h
1 Bft
NNO -
0.0 mm/h
0.0 340 cm
00:00 Stark bewölkt3 11.1 °C 88 %
9.2 °C
1022.5 hPa 0.0 km/h
0 Bft
3.2 km/h
1 Bft
NNO 0.00 mm
0.0 mm/h
0.0 340 cm
Datenbasis Wetterzustand: ¹ Wetterstation Köln-Nippes (Stellwerk), ² powered by , ³ powered by OpenWeatherMap, CC BY-SA 4.0; Warnlage: DWD, Pegelonline, LANUV; Pegel Köln: Pegelonline
 
Extrem- und Durchschnittswerte
  Temperatur Luftfeuchte Luftdruck Wind Windböen Wind-
richtung
Regen UV-Index Pegel Köln KKT
Min

Max

Ø
10.5 °C
04:26 Uhr
14.7 °C
15:40 Uhr
12.1 °C
73.0 %
00:00 Uhr
89.0 %
20:58 Uhr
80.9 %
1021.4 hPa
00:05 Uhr
1025.2 hPa
12:29 Uhr
1023.2 hPa
 
 
6.5 km/h
14:07 Uhr
2.5 km/h
 
 
17.6 km/h
00:00 Uhr
 
 
 
SO
 
 
 
 
0.00 mm
 
 
 
 
2.4
14:05 Uhr
 
300 cm
00:15 Uhr
342 cm
18:30 Uhr
 
  Taupunkt   Wind Windböen   Regenrate Ozon Sonne Mond
Min

Max

Ø
7.6 °C
03:03 Uhr
10.5 °C
15:40 Uhr
8.9 °C
   
 
2 Bft
14:07 Uhr
2.5 km/h
 
 
3 Bft
00:00 Uhr
 
   
 
0.0 mm/h
00:00 Uhr
 
 
Hürth
47 μg/m³
01:00 Uhr
 
▲ 08:07 Uhr
▼ 18:27 Uhr
▲ 00:01 Uhr
▼ 16:15 Uhr
KKT = Klimatologischer Kenntag: ET = Eistag, FT = Frosttag, KT = Kalter Tag, ST = Sommertag, HT = Hitzetag, TN = Tropennacht, NT = Niederschlagstag, SH = Schneehöhe (Max Tag); Datenbasis Ozon: LANUV, Land NRW, dl-de/by-2-0
Für dieses Datum steht leider (noch) kein Tagesrückblick zur Verfügung.
 
Tagesgrafik
Grafik zum Vergrößern anklicken
 
Detaillierte Warnlage
















22.10.19

22.10.19

22.10.19

22.10.19

22.10.19

22.10.19

22.10.19
Datenbasis: DWD, Pegelonline, LANUV


Zurück zur Eingabemaske